ANA749 RJTT-RJNW

Flight info

Callsign ANA749
Flight time 0h 39m
Altitude 28000
Route BEKLA3A BEKLA Y885 AZUMI V57 HAPPO KILCO
Aircraft A21N/M-V/N

Departure

Time 2026-04-24 13:45
Airport Tokyo Haneda International Airport (RJTT)

Arrival

Time 2026-04-24 14:24
Airport Noto Satoyama Airport (RJNW)
Time Latitude Longitude Altitude Speed Heading
2026-04-24 13:04 35.55209 139.78907 33 ft 0 kts 240°
2026-04-24 13:32 35.55213 139.78916 33 ft 2 kts 234°
2026-04-24 13:32 35.55223 139.78932 32 ft 2 kts 230°
2026-04-24 13:32 35.55235 139.78946 32 ft 2 kts 220°
2026-04-24 13:33 35.55249 139.78958 32 ft 2 kts 207°
2026-04-24 13:33 35.55264 139.78965 32 ft 2 kts 191°
2026-04-24 13:33 35.55281 139.78967 33 ft 2 kts 174°
2026-04-24 13:33 35.55297 139.78963 33 ft 2 kts 162°
2026-04-24 13:34 35.55312 139.78955 33 ft 2 kts 153°
2026-04-24 13:34 35.55318 139.78951 33 ft 0 kts 149°
2026-04-24 13:38 35.55304 139.78961 33 ft 5 kts 149°
2026-04-24 13:38 35.55258 139.78994 33 ft 10 kts 150°
2026-04-24 13:38 35.55224 139.79081 33 ft 13 kts 81°
2026-04-24 13:39 35.55267 139.79187 32 ft 15 kts 59°
2026-04-24 13:39 35.55295 139.79307 32 ft 16 kts 120°
2026-04-24 13:39 35.55199 139.79387 32 ft 17 kts 150°
2026-04-24 13:39 35.55092 139.79461 33 ft 18 kts 150°
2026-04-24 13:40 35.54978 139.79542 32 ft 19 kts 150°
2026-04-24 13:40 35.54858 139.79628 31 ft 21 kts 149°
2026-04-24 13:40 35.54732 139.79719 30 ft 21 kts 150°
2026-04-24 13:40 35.54599 139.79812 30 ft 23 kts 150°
2026-04-24 13:41 35.54460 139.79910 28 ft 23 kts 150°
2026-04-24 13:41 35.54316 139.80011 27 ft 24 kts 150°
2026-04-24 13:41 35.54209 139.80088 26 ft 13 kts 142°
2026-04-24 13:41 35.54204 139.80185 29 ft 7 kts 60°
2026-04-24 13:42 35.54205 139.80187 29 ft 0 kts 59°
2026-04-24 13:43 35.54206 139.80188 29 ft 1 kts 59°
2026-04-24 13:43 35.54222 139.80221 21 ft 7 kts 59°
2026-04-24 13:43 35.54270 139.80276 33 ft 11 kts 16°
2026-04-24 13:44 35.54335 139.80256 33 ft 11 kts 332°
2026-04-24 13:44 35.54407 139.80207 33 ft 14 kts 330°
2026-04-24 13:44 35.54642 139.80040 34 ft 75 kts 331°
2026-04-24 13:44 35.55322 139.79558 33 ft 143 kts 330°
2026-04-24 13:45 35.56305 139.78848 250 ft 170 kts 332°
2026-04-24 13:45 35.57291 139.78143 1055 ft 160 kts 337°
2026-04-24 13:45 35.58319 139.77811 1813 ft 150 kts
2026-04-24 13:45 35.59271 139.78252 2346 ft 151 kts 48°
2026-04-24 13:46 35.59696 139.79413 2863 ft 155 kts 74°
2026-04-24 13:46 35.60046 139.80717 3359 ft 171 kts 68°
2026-04-24 13:46 35.60522 139.82175 3757 ft 195 kts 66°
2026-04-24 13:46 35.60976 139.83824 4230 ft 215 kts 78°
2026-04-24 13:47 35.61045 139.85785 4602 ft 244 kts 89°
2026-04-24 13:47 35.61000 139.87953 5106 ft 263 kts 90°
2026-04-24 13:47 35.60955 139.90233 5794 ft 270 kts 90°
2026-04-24 13:47 35.61070 139.92538 6530 ft 272 kts 75°
2026-04-24 13:48 35.61881 139.94621 7174 ft 274 kts 48°
2026-04-24 13:48 35.63381 139.96045 7836 ft 276 kts 21°
2026-04-24 13:48 35.65246 139.96540 8519 ft 277 kts
2026-04-24 13:48 35.67181 139.96487 9206 ft 280 kts 347°
2026-04-24 13:49 35.68973 139.95578 9899 ft 282 kts 324°
2026-04-24 13:49 35.70351 139.93842 10342 ft 292 kts 301°
2026-04-24 13:49 35.71191 139.91493 10629 ft 309 kts 289°
2026-04-24 13:49 35.71888 139.88902 10878 ft 327 kts 288°
2026-04-24 13:50 35.72618 139.86209 11102 ft 345 kts 289°
2026-04-24 13:50 35.73419 139.83348 11334 ft 361 kts 289°
2026-04-24 13:50 35.74270 139.80363 11551 ft 377 kts 289°
2026-04-24 13:50 35.75172 139.77249 11960 ft 384 kts 289°
2026-04-24 13:51 35.76066 139.74178 12478 ft 387 kts 289°
2026-04-24 13:51 35.76913 139.71028 13017 ft 389 kts 287°
2026-04-24 13:51 35.77718 139.67828 13546 ft 392 kts 287°
2026-04-24 13:51 35.78531 139.64568 14080 ft 395 kts 287°
2026-04-24 13:52 35.79325 139.61378 14565 ft 396 kts 287°
2026-04-24 13:52 35.80135 139.58128 15097 ft 396 kts 286°
2026-04-24 13:52 35.80944 139.54880 15667 ft 396 kts 286°
2026-04-24 13:52 35.81749 139.51644 16263 ft 396 kts 286°
2026-04-24 13:53 35.82495 139.48495 16826 ft 396 kts 283°
2026-04-24 13:53 35.82890 139.45137 17417 ft 396 kts 273°
2026-04-24 13:53 35.82966 139.41745 17991 ft 396 kts 271°
2026-04-24 13:53 35.83002 139.38345 18531 ft 397 kts 271°
2026-04-24 13:54 35.83040 139.34935 18990 ft 398 kts 270°
2026-04-24 13:54 35.83084 139.31505 19433 ft 400 kts 270°
2026-04-24 13:54 35.83134 139.28074 19833 ft 402 kts 270°
2026-04-24 13:54 35.83182 139.24620 20133 ft 404 kts 270°
2026-04-24 13:55 35.83267 139.21156 20245 ft 404 kts 272°
2026-04-24 13:55 35.83712 139.17713 20555 ft 410 kts 280°
2026-04-24 13:55 35.84675 139.14378 20924 ft 417 kts 292°
2026-04-24 13:55 35.86159 139.11269 21316 ft 423 kts 298°
2026-04-24 13:56 35.87783 139.08228 21691 ft 425 kts 298°
2026-04-24 13:56 35.89415 139.05169 22064 ft 427 kts 298°
2026-04-24 13:56 35.91038 139.02090 22416 ft 430 kts 297°
2026-04-24 13:56 35.92668 138.98971 22767 ft 433 kts 297°
2026-04-24 13:57 35.94300 138.95841 23130 ft 436 kts 297°
2026-04-24 13:57 35.95943 138.92681 23515 ft 439 kts 296°
2026-04-24 13:57 35.97597 138.89501 23899 ft 440 kts 296°
2026-04-24 13:57 35.99248 138.86320 24296 ft 439 kts 296°
2026-04-24 13:58 36.00867 138.83205 24790 ft 433 kts 296°
2026-04-24 13:58 36.02481 138.80094 25405 ft 427 kts 295°
2026-04-24 13:58 36.04068 138.77030 25981 ft 421 kts 295°
2026-04-24 13:58 36.05638 138.73993 26566 ft 416 kts 295°
2026-04-24 13:59 36.07182 138.71004 27155 ft 410 kts 295°
2026-04-24 13:59 36.08703 138.68048 27707 ft 406 kts 295°
2026-04-24 13:59 36.10214 138.65112 28070 ft 404 kts 294°
2026-04-24 13:59 36.11725 138.62179 28195 ft 404 kts 294°
2026-04-24 14:00 36.14743 138.56319 28200 ft 404 kts 294°
2026-04-24 14:00 36.17763 138.50441 28191 ft 405 kts 294°
2026-04-24 14:01 36.20783 138.44554 28199 ft 406 kts 294°
2026-04-24 14:01 36.23808 138.38642 28192 ft 406 kts 294°
2026-04-24 14:02 36.26832 138.32727 28191 ft 407 kts 294°
2026-04-24 14:02 36.29851 138.26794 28197 ft 408 kts 294°
2026-04-24 14:03 36.32880 138.20842 28198 ft 409 kts 295°
2026-04-24 14:03 36.35923 138.14883 28209 ft 408 kts 295°
2026-04-24 14:04 36.38943 138.08933 28228 ft 405 kts 294°
2026-04-24 14:04 36.41934 138.03026 28206 ft 408 kts 294°
2026-04-24 14:05 36.45141 137.97138 28206 ft 418 kts 302°
2026-04-24 14:05 36.47263 137.94599 28196 ft 430 kts 313°
2026-04-24 14:05 36.49822 137.92567 28184 ft 445 kts 324°
2026-04-24 14:06 36.52719 137.91195 28189 ft 461 kts 336°
2026-04-24 14:06 36.55937 137.90570 28182 ft 474 kts 348°
2026-04-24 14:06 36.59226 137.90447 27842 ft 474 kts 351°
2026-04-24 14:06 36.62539 137.90385 27517 ft 477 kts 351°
2026-04-24 14:07 36.65848 137.90312 26834 ft 474 kts 351°
2026-04-24 14:07 36.69149 137.90222 25932 ft 473 kts 351°
2026-04-24 14:07 36.72431 137.90120 25002 ft 473 kts 351°
2026-04-24 14:07 36.75720 137.90013 24070 ft 472 kts 351°
2026-04-24 14:08 36.78996 137.89904 23113 ft 470 kts 352°
2026-04-24 14:08 36.82254 137.89792 22277 ft 467 kts 353°
2026-04-24 14:08 36.85484 137.89688 21586 ft 461 kts 353°
2026-04-24 14:08 36.87642 137.89622 21120 ft 457 kts 354°
2026-04-24 14:09 36.90760 137.89530 20371 ft 453 kts 354°
2026-04-24 14:09 36.93938 137.89433 19651 ft 448 kts 354°
2026-04-24 14:09 36.97038 137.89330 18955 ft 443 kts 355°
2026-04-24 14:09 37.00087 137.89133 18215 ft 432 kts 350°
2026-04-24 14:10 37.02929 137.88316 17491 ft 418 kts 338°
2026-04-24 14:10 37.05530 137.86752 16909 ft 404 kts 326°
2026-04-24 14:10 37.07704 137.84611 16362 ft 395 kts 314°
2026-04-24 14:10 37.09442 137.81978 15818 ft 389 kts 303°
2026-04-24 14:11 37.10684 137.79003 15290 ft 384 kts 291°
2026-04-24 14:11 37.11412 137.75812 14796 ft 380 kts 281°
2026-04-24 14:11 37.12036 137.69325 13708 ft 375 kts 277°
2026-04-24 14:12 37.12318 137.66097 13073 ft 370 kts 277°
2026-04-24 14:12 37.12607 137.62906 12435 ft 368 kts 278°
2026-04-24 14:12 37.12902 137.59737 11923 ft 361 kts 278°
2026-04-24 14:12 37.13187 137.56675 11648 ft 347 kts 278°
2026-04-24 14:13 37.13459 137.53733 11439 ft 332 kts 278°
2026-04-24 14:13 37.13718 137.50928 11257 ft 317 kts 278°
2026-04-24 14:13 37.13965 137.48241 11079 ft 303 kts 278°
2026-04-24 14:13 37.14202 137.45677 10911 ft 289 kts 278°
2026-04-24 14:14 37.14428 137.43221 10665 ft 280 kts 279°
2026-04-24 14:14 37.14653 137.40782 10105 ft 284 kts 279°
2026-04-24 14:14 37.15103 137.35893 9226 ft 281 kts 279°
2026-04-24 14:15 37.15325 137.33460 8874 ft 280 kts 279°
2026-04-24 14:15 37.15546 137.31041 8527 ft 279 kts 279°
2026-04-24 14:15 37.15765 137.28629 8180 ft 278 kts 279°
2026-04-24 14:15 37.15985 137.26222 7850 ft 277 kts 280°
2026-04-24 14:16 37.16200 137.23858 7527 ft 276 kts 280°
2026-04-24 14:16 37.16419 137.21437 7172 ft 276 kts 280°
2026-04-24 14:16 37.16635 137.19048 6816 ft 276 kts 280°
2026-04-24 14:17 37.17064 137.14272 6091 ft 274 kts 279°
2026-04-24 14:17 37.17268 137.11969 5885 ft 264 kts 279°
2026-04-24 14:17 37.17657 137.07577 5547 ft 239 kts 279°
2026-04-24 14:18 37.17834 137.05589 5378 ft 227 kts 279°
2026-04-24 14:18 37.18005 137.03669 5131 ft 216 kts 279°
2026-04-24 14:18 37.18163 137.01865 4996 ft 200 kts 279°
2026-04-24 14:18 37.18311 137.00205 4880 ft 184 kts 280°
2026-04-24 14:19 37.18453 136.98623 4577 ft 183 kts 280°
2026-04-24 14:19 37.18592 136.97043 4278 ft 181 kts 280°
2026-04-24 14:19 37.18731 136.95470 4194 ft 182 kts 279°
2026-04-24 14:19 37.18871 136.93899 4182 ft 181 kts 279°
2026-04-24 14:20 37.19011 136.92312 3891 ft 186 kts 279°
2026-04-24 14:20 37.19248 136.90789 3879 ft 178 kts 296°
2026-04-24 14:20 37.20115 136.89785 3492 ft 170 kts 345°
2026-04-24 14:20 37.21274 136.89690 3023 ft 166 kts
2026-04-24 14:21 37.22220 136.89138 3048 ft 147 kts 310°
2026-04-24 14:21 37.22804 136.88035 3173 ft 148 kts 315°
2026-04-24 14:21 37.23605 136.87295 2824 ft 140 kts 348°
2026-04-24 14:21 37.24500 136.87469 2302 ft 131 kts 36°
2026-04-24 14:22 37.25185 136.88190 1882 ft 127 kts 43°
2026-04-24 14:22 37.25858 136.88923 1653 ft 130 kts 44°
2026-04-24 14:22 37.27131 136.90508 1372 ft 131 kts 50°
2026-04-24 14:23 37.27666 136.91414 1154 ft 127 kts 60°
2026-04-24 14:23 37.28005 136.92420 1087 ft 126 kts 67°
2026-04-24 14:23 37.28363 136.93432 978 ft 127 kts 65°
2026-04-24 14:23 37.28727 136.94476 850 ft 130 kts 64°
2026-04-24 14:24 37.29083 136.95499 734 ft 119 kts 65°
2026-04-24 14:24 37.29294 136.96124 732 ft 29 kts 66°
2026-04-24 14:24 37.29372 136.96352 728 ft 29 kts 68°
2026-04-24 14:24 37.29451 136.96592 726 ft 30 kts 67°
2026-04-24 14:25 37.29536 136.96837 724 ft 31 kts 66°
2026-04-24 14:25 37.29620 136.97083 719 ft 26 kts 66°
2026-04-24 14:25 37.29668 136.97173 715 ft 9 kts 41°
2026-04-24 14:25 37.29656 136.97196 718 ft 11 kts 245°
2026-04-24 14:26 37.29624 136.97096 716 ft 15 kts 249°
2026-04-24 14:26 37.29578 136.96956 721 ft 20 kts 246°
2026-04-24 14:26 37.29520 136.96789 725 ft 22 kts 247°
2026-04-24 14:26 37.29458 136.96607 726 ft 24 kts 247°
2026-04-24 14:27 37.29391 136.96412 730 ft 25 kts 246°
2026-04-24 14:27 37.29336 136.96252 731 ft 18 kts 246°
2026-04-24 14:27 37.29284 136.96099 732 ft 20 kts 247°
2026-04-24 14:27 37.29229 136.95937 732 ft 18 kts 247°
2026-04-24 14:28 37.29299 136.95827 732 ft 14 kts 340°
2026-04-24 14:28 37.29387 136.95784 733 ft 10 kts 346°
2026-04-24 14:28 37.29432 136.95812 732 ft 7 kts 50°
2026-04-24 14:28 37.29450 136.95822 733 ft 1 kts 10°
2026-04-24 14:29 37.29453 136.95823 733 ft 2 kts
2026-04-24 14:29 37.29470 136.95819 733 ft 0 kts 349°